owner,sensor,date,latitude,longitude,vertical_datum,direction_of_sea_water_velocity,sea_water_speed,upward_sea_water_velocity,qcFlag 
TABS,ioos:station:wmo:42044:1,2000-06-01T00:00:00Z,26.1914,-97.0507,2.0,346.101999,16.1116883,-99999.0,'11111222,11111222,99999999' 
TABS,ioos:station:wmo:42044:1,2000-06-01T00:30:00Z,26.1914,-97.0507,2.0,351.5591063,19.27884333,-99999.0,'11111222,11111222,99999999' 
TABS,ioos:station:wmo:42044:1,2000-06-01T01:00:00Z,26.1914,-97.0507,2.0,339.7418144,19.37876415,-99999.0,'11111222,11111222,99999999' 
TABS,ioos:station:wmo:42044:1,2000-06-01T01:30:00Z,26.1914,-97.0507,2.0,338.7270947,20.94732441,-99999.0,'11111222,11111222,99999999' 
TABS,ioos:station:wmo:42044:1,2000-06-01T02:00:00Z,26.1914,-97.0507,2.0,333.8084777,20.59462308,-99999.0,'11111222,11111222,99999999' 
TABS,ioos:station:wmo:42044:1,2000-06-01T02:30:00Z,26.1914,-97.0507,2.0,330.9404911,21.47318793,-99999.0,'11111222,11111222,99999999' 
TABS,ioos:station:wmo:42044:1,2000-06-01T03:00:00Z,26.1914,-97.0507,2.0,329.4858615,23.1804616,-99999.0,'11111222,11111222,99999999' 
TABS,ioos:station:wmo:42044:1,2000-06-01T03:30:00Z,26.1914,-97.0507,2.0,334.0517293,24.52214102,-99999.0,'11111222,11111222,99999999' 
TABS,ioos:station:wmo:42044:1,2000-06-01T04:00:00Z,26.1914,-97.0507,2.0,328.3319604,24.68565778,-99999.0,'11111222,11111222,99999999' 
TABS,ioos:station:wmo:42044:1,2000-06-01T04:30:00Z,26.1914,-97.0507,2.0,333.4260658,27.98662716,-99999.0,'11111222,11111222,99999999' 
TABS,ioos:station:wmo:42044:1,2000-06-01T05:00:00Z,26.1914,-97.0507,2.0,332.61597,27.52433832,-99999.0,'11111222,11111222,99999999' 
TABS,ioos:station:wmo:42044:1,2000-06-01T05:30:00Z,26.1914,-97.0507,2.0,330.0724823,28.36192694,-99999.0,'11111222,11111222,99999999' 
TABS,ioos:station:wmo:42044:1,2000-06-01T06:00:00Z,26.1914,-97.0507,2.0,331.3381563,29.20919376,-99999.0,'11111222,11111222,99999999' 
TABS,ioos:station:wmo:42044:1,2000-06-01T06:30:00Z,26.1914,-97.0507,2.0,336.3132703,31.88629957,-99999.0,'11111222,11111222,99999999' 
TABS,ioos:station:wmo:42044:1,2000-06-01T07:00:00Z,26.1914,-97.0507,2.0,338.0216687,34.22752839,-99999.0,'11111222,11111222,99999999' 
TABS,ioos:station:wmo:42044:1,2000-06-01T07:30:00Z,26.1914,-97.0507,2.0,337.9047684,33.28447085,-99999.0,'11111222,11111222,99999999' 
TABS,ioos:station:wmo:42044:1,2000-06-01T08:00:00Z,26.1914,-97.0507,2.0,343.927949,36.59019677,-99999.0,'11111222,11111222,99999999' 
TABS,ioos:station:wmo:42044:1,2000-06-01T08:30:00Z,26.1914,-97.0507,2.0,349.6277342,35.60180473,-99999.0,'11111222,11111222,99999999' 
TABS,ioos:station:wmo:42044:1,2000-06-01T09:00:00Z,26.1914,-97.0507,2.0,349.1563131,36.41016479,-99999.0,'11111222,11111222,99999999' 
TABS,ioos:station:wmo:42044:1,2000-06-01T09:30:00Z,26.1914,-97.0507,2.0,351.9348262,35.06686185,-99999.0,'11111222,11111222,99999999' 
TABS,ioos:station:wmo:42044:1,2000-06-01T10:00:00Z,26.1914,-97.0507,2.0,351.6067842,35.69229889,-99999.0,'11111222,11111222,99999999' 
TABS,ioos:station:wmo:42044:1,2000-06-01T10:30:00Z,26.1914,-97.0507,2.0,352.8445529,37.08887165,-99999.0,'11111222,11111222,99999999' 
TABS,ioos:station:wmo:42044:1,2000-06-01T11:00:00Z,26.1914,-97.0507,2.0,356.946078,36.41171789,-99999.0,'11111222,11111222,99999999' 
TABS,ioos:station:wmo:42044:1,2000-06-01T11:30:00Z,26.1914,-97.0507,2.0,358.819682,35.91762381,-99999.0,'11111222,11111222,99999999' 
TABS,ioos:station:wmo:42044:1,2000-06-01T12:00:00Z,26.1914,-97.0507,2.0,359.2882051,36.21279608,-99999.0,'11111222,11144222,99999999' 
TABS,ioos:station:wmo:42044:1,2000-06-01T12:30:00Z,26.1914,-97.0507,2.0,356.3711326,35.23064717,-99999.0,'11111222,11111222,99999999' 
TABS,ioos:station:wmo:42044:1,2000-06-01T13:00:00Z,26.1914,-97.0507,2.0,2.457530776,34.75195678,-99999.0,'11111222,11111222,99999999' 
TABS,ioos:station:wmo:42044:1,2000-06-01T13:30:00Z,26.1914,-97.0507,2.0,345.6694028,34.90618856,-99999.0,'11111222,11111222,99999999' 
TABS,ioos:station:wmo:42044:1,2000-06-01T14:00:00Z,26.1914,-97.0507,2.0,358.1405141,36.66931415,-99999.0,'11111222,11111222,99999999' 
TABS,ioos:station:wmo:42044:1,2000-06-01T14:30:00Z,26.1914,-97.0507,2.0,5.262803479,35.76073965,-99999.0,'11111222,11111222,99999999' 
TABS,ioos:station:wmo:42044:1,2000-06-01T15:00:00Z,26.1914,-97.0507,2.0,6.089590847,35.06786706,-99999.0,'11111222,11111222,99999999' 
TABS,ioos:station:wmo:42044:1,2000-06-01T15:30:00Z,26.1914,-97.0507,2.0,11.97408471,38.07850443,-99999.0,'11111222,11111222,99999999' 
TABS,ioos:station:wmo:42044:1,2000-06-01T16:00:00Z,26.1914,-97.0507,2.0,359.7647502,36.50030822,-99999.0,'11111222,11144222,99999999' 
TABS,ioos:station:wmo:42044:1,2000-06-01T16:30:00Z,26.1914,-97.0507,2.0,354.2109191,35.49101999,-99999.0,'11111222,11111222,99999999' 
TABS,ioos:station:wmo:42044:1,2000-06-01T17:00:00Z,26.1914,-97.0507,2.0,5.143686085,31.56711105,-99999.0,'11111222,11111222,99999999' 
TABS,ioos:station:wmo:42044:1,2000-06-01T17:30:00Z,26.1914,-97.0507,2.0,5.791292223,33.99348908,-99999.0,'11111222,11111222,99999999' 
TABS,ioos:station:wmo:42044:1,2000-06-01T18:00:00Z,26.1914,-97.0507,2.0,7.908210245,36.85043962,-99999.0,'11111222,11111222,99999999' 
TABS,ioos:station:wmo:42044:1,2000-06-01T18:30:00Z,26.1914,-97.0507,2.0,0.474894258,36.21124273,-99999.0,'11111222,11111222,99999999' 
TABS,ioos:station:wmo:42044:1,2000-06-01T19:00:00Z,26.1914,-97.0507,2.0,5.814031341,35.3417883,-99999.0,'11111222,11111222,99999999' 
TABS,ioos:station:wmo:42044:1,2000-06-01T19:30:00Z,26.1914,-97.0507,2.0,8.243451611,32.22291886,-99999.0,'11111222,11111222,99999999' 
TABS,ioos:station:wmo:42044:1,2000-06-01T20:00:00Z,26.1914,-97.0507,2.0,8.254729827,28.00008036,-99999.0,'11111222,11111222,99999999' 
TABS,ioos:station:wmo:42044:1,2000-06-01T20:30:00Z,26.1914,-97.0507,2.0,7.152647302,31.0818677,-99999.0,'11111222,11111222,99999999' 
TABS,ioos:station:wmo:42044:1,2000-06-01T21:00:00Z,26.1914,-97.0507,2.0,14.11964315,25.04668042,-99999.0,'11111222,11111222,99999999' 
TABS,ioos:station:wmo:42044:1,2000-06-01T21:30:00Z,26.1914,-97.0507,2.0,18.33411665,25.1148482,-99999.0,'11111222,11111222,99999999' 
TABS,ioos:station:wmo:42044:1,2000-06-01T22:00:00Z,26.1914,-97.0507,2.0,5.946573461,24.42140455,-99999.0,'11111222,11111222,99999999' 
TABS,ioos:station:wmo:42044:1,2000-06-01T22:30:00Z,26.1914,-97.0507,2.0,3.814276374,22.3996116,-99999.0,'11111222,11111222,99999999' 
TABS,ioos:station:wmo:42044:1,2000-06-01T23:00:00Z,26.1914,-97.0507,2.0,6.545645057,22.19467053,-99999.0,'11111222,11111222,99999999' 
TABS,ioos:station:wmo:42044:1,2000-06-01T23:30:00Z,26.1914,-97.0507,2.0,6.303823474,19.03508603,-99999.0,'11111222,11111222,99999999' 
TABS,ioos:station:wmo:42044:1,2000-06-02T00:00:00Z,26.1914,-97.0507,2.0,3.627844288,18.8076846,-99999.0,'11111222,11111222,99999999' 
TABS,ioos:station:wmo:42044:1,2000-06-02T00:30:00Z,26.1914,-97.0507,2.0,7.938223416,19.40594754,-99999.0,'11111222,11111222,99999999' 
TABS,ioos:station:wmo:42044:1,2000-06-02T01:00:00Z,26.1914,-97.0507,2.0,355.9581281,16.88199337,-99999.0,'11111222,11111222,99999999' 
TABS,ioos:station:wmo:42044:1,2000-06-02T01:30:00Z,26.1914,-97.0507,2.0,353.4422067,18.29974044,-99999.0,'11111222,11111222,99999999' 
TABS,ioos:station:wmo:42044:1,2000-06-02T02:00:00Z,26.1914,-97.0507,2.0,340.510405,17.86357187,-99999.0,'11111222,11111222,99999999' 
TABS,ioos:station:wmo:42044:1,2000-06-02T02:30:00Z,26.1914,-97.0507,2.0,340.8705654,19.56012526,-99999.0,'11111222,11111222,99999999' 
TABS,ioos:station:wmo:42044:1,2000-06-02T03:00:00Z,26.1914,-97.0507,2.0,337.1142457,20.6994541,-99999.0,'11111222,11111222,99999999' 
TABS,ioos:station:wmo:42044:1,2000-06-02T03:30:00Z,26.1914,-97.0507,2.0,334.3652638,20.66399042,-99999.0,'11111222,11111222,99999999' 
TABS,ioos:station:wmo:42044:1,2000-06-02T04:00:00Z,26.1914,-97.0507,2.0,334.4623241,22.4537302,-99999.0,'11111222,11111222,99999999' 
TABS,ioos:station:wmo:42044:1,2000-06-02T04:30:00Z,26.1914,-97.0507,2.0,331.8765408,24.33295091,-99999.0,'11111222,11111222,99999999' 
TABS,ioos:station:wmo:42044:1,2000-06-02T05:00:00Z,26.1914,-97.0507,2.0,341.55132,25.91170392,-99999.0,'11111222,11111222,99999999' 
TABS,ioos:station:wmo:42044:1,2000-06-02T05:30:00Z,26.1914,-97.0507,2.0,337.7920073,27.1976249,-99999.0,'11111222,11111222,99999999' 
TABS,ioos:station:wmo:42044:1,2000-06-02T06:00:00Z,26.1914,-97.0507,2.0,339.8428891,28.09055535,-99999.0,'11111222,11111222,99999999' 
TABS,ioos:station:wmo:42044:1,2000-06-02T06:30:00Z,26.1914,-97.0507,2.0,338.9011645,29.39035216,-99999.0,'11111222,11111222,99999999' 
TABS,ioos:station:wmo:42044:1,2000-06-02T07:00:00Z,26.1914,-97.0507,2.0,343.6759247,30.73921925,-99999.0,'11111222,11111222,99999999' 
TABS,ioos:station:wmo:42044:1,2000-06-02T07:30:00Z,26.1914,-97.0507,2.0,339.4679928,31.02058832,-99999.0,'11111222,11111222,99999999' 
TABS,ioos:station:wmo:42044:1,2000-06-02T08:00:00Z,26.1914,-97.0507,2.0,343.414309,33.42054009,-99999.0,'11111222,11111222,99999999' 
TABS,ioos:station:wmo:42044:1,2000-06-02T08:30:00Z,26.1914,-97.0507,2.0,343.4046373,33.89178071,-99999.0,'11111222,11111222,99999999' 
TABS,ioos:station:wmo:42044:1,2000-06-02T09:00:00Z,26.1914,-97.0507,2.0,339.4462395,33.09689562,-99999.0,'11111222,11111222,99999999' 
TABS,ioos:station:wmo:42044:1,2000-06-02T09:30:00Z,26.1914,-97.0507,2.0,339.5874521,34.17612178,-99999.0,'11111222,11111222,99999999' 
TABS,ioos:station:wmo:42044:1,2000-06-02T10:00:00Z,26.1914,-97.0507,2.0,343.0026012,35.67855518,-99999.0,'11111222,11111222,99999999' 
TABS,ioos:station:wmo:42044:1,2000-06-02T10:30:00Z,26.1914,-97.0507,2.0,351.0724506,34.53844235,-99999.0,'11111222,11111222,99999999' 
TABS,ioos:station:wmo:42044:1,2000-06-02T11:00:00Z,26.1914,-97.0507,2.0,352.3389607,33.52929764,-99999.0,'11111222,11111222,99999999' 
TABS,ioos:station:wmo:42044:1,2000-06-02T11:30:00Z,26.1914,-97.0507,2.0,354.8986653,33.51275578,-99999.0,'11111222,11111222,99999999' 
TABS,ioos:station:wmo:42044:1,2000-06-02T12:00:00Z,26.1914,-97.0507,2.0,357.7511856,34.14630287,-99999.0,'11111222,11111222,99999999' 
TABS,ioos:station:wmo:42044:1,2000-06-02T12:30:00Z,26.1914,-97.0507,2.0,355.6962677,35.71070568,-99999.0,'11111222,11111222,99999999' 
TABS,ioos:station:wmo:42044:1,2000-06-02T13:00:00Z,26.1914,-97.0507,2.0,356.5604329,37.16695979,-99999.0,'11111222,11111222,99999999' 
TABS,ioos:station:wmo:42044:1,2000-06-02T13:30:00Z,26.1914,-97.0507,2.0,350.5732609,37.30378131,-99999.0,'11111222,11111222,99999999' 
TABS,ioos:station:wmo:42044:1,2000-06-02T14:00:00Z,26.1914,-97.0507,2.0,358.8575378,37.10737932,-99999.0,'11111222,11111222,99999999' 
TABS,ioos:station:wmo:42044:1,2000-06-02T14:30:00Z,26.1914,-97.0507,2.0,2.272533969,37.57955029,-99999.0,'11111222,11111222,99999999' 
TABS,ioos:station:wmo:42044:1,2000-06-02T15:00:00Z,26.1914,-97.0507,2.0,355.2688868,39.76550389,-99999.0,'11111222,11111222,99999999' 
TABS,ioos:station:wmo:42044:1,2000-06-02T15:30:00Z,26.1914,-97.0507,2.0,355.9763475,40.32941606,-99999.0,'11111222,11111222,99999999' 
TABS,ioos:station:wmo:42044:1,2000-06-02T16:00:00Z,26.1914,-97.0507,2.0,4.463547383,42.14782082,-99999.0,'11111222,11111222,99999999' 
TABS,ioos:station:wmo:42044:1,2000-06-02T16:30:00Z,26.1914,-97.0507,2.0,5.570129098,42.96285023,-99999.0,'11111222,11111222,99999999' 
TABS,ioos:station:wmo:42044:1,2000-06-02T17:00:00Z,26.1914,-97.0507,2.0,352.0271905,39.72399401,-99999.0,'11111222,11111222,99999999' 
TABS,ioos:station:wmo:42044:1,2000-06-02T17:30:00Z,26.1914,-97.0507,2.0,358.7911624,42.1793907,-99999.0,'11111222,11111222,99999999' 
TABS,ioos:station:wmo:42044:1,2000-06-02T18:00:00Z,26.1914,-97.0507,2.0,7.361701752,44.17410667,-99999.0,'11111222,11111222,99999999' 
TABS,ioos:station:wmo:42044:1,2000-06-02T18:30:00Z,26.1914,-97.0507,2.0,2.169242622,39.36820672,-99999.0,'11111222,11111222,99999999' 
TABS,ioos:station:wmo:42044:1,2000-06-02T19:00:00Z,26.1914,-97.0507,2.0,7.604838958,41.63619819,-99999.0,'11111222,11111222,99999999' 
TABS,ioos:station:wmo:42044:1,2000-06-02T19:30:00Z,26.1914,-97.0507,2.0,18.84185481,39.20058163,-99999.0,'11111222,11111222,99999999' 
TABS,ioos:station:wmo:42044:1,2000-06-02T20:00:00Z,26.1914,-97.0507,2.0,7.833986099,36.09686967,-99999.0,'11111222,11111222,99999999' 
TABS,ioos:station:wmo:42044:1,2000-06-02T20:30:00Z,26.1914,-97.0507,2.0,0.238543716,36.06031198,-99999.0,'11111222,11111222,99999999' 
TABS,ioos:station:wmo:42044:1,2000-06-02T21:00:00Z,26.1914,-97.0507,2.0,12.39016589,34.02238822,-99999.0,'11111222,11111222,99999999' 
TABS,ioos:station:wmo:42044:1,2000-06-02T21:30:00Z,26.1914,-97.0507,2.0,14.78926042,32.67236906,-99999.0,'11111222,11111222,99999999' 
TABS,ioos:station:wmo:42044:1,2000-06-02T22:00:00Z,26.1914,-97.0507,2.0,20.15117445,26.82181948,-99999.0,'11111222,11111222,99999999' 
TABS,ioos:station:wmo:42044:1,2000-06-02T22:30:00Z,26.1914,-97.0507,2.0,5.001959144,25.57739823,-99999.0,'11111222,11111222,99999999' 
TABS,ioos:station:wmo:42044:1,2000-06-02T23:00:00Z,26.1914,-97.0507,2.0,5.957509375,27.26725692,-99999.0,'11111222,11111222,99999999' 
TABS,ioos:station:wmo:42044:1,2000-06-02T23:30:00Z,26.1914,-97.0507,2.0,7.605612509,28.10725885,-99999.0,'11111222,11111222,99999999' 
TABS,ioos:station:wmo:42044:1,2000-06-03T00:00:00Z,26.1914,-97.0507,2.0,0.000210459,23.84,-99999.0,'11111222,11111222,99999999' 
TABS,ioos:station:wmo:42044:1,2000-06-03T00:30:00Z,26.1914,-97.0507,2.0,14.56177373,27.24517205,-99999.0,'11111222,11111222,99999999' 
TABS,ioos:station:wmo:42044:1,2000-06-03T01:00:00Z,26.1914,-97.0507,2.0,3.488957533,24.48537727,-99999.0,'11111222,11111222,99999999' 
TABS,ioos:station:wmo:42044:1,2000-06-03T01:30:00Z,26.1914,-97.0507,2.0,0.000210459,22.65,-99999.0,'11111222,11111222,99999999' 
TABS,ioos:station:wmo:42044:1,2000-06-03T02:00:00Z,26.1914,-97.0507,2.0,356.2161776,20.30426556,-99999.0,'11111222,11111222,99999999' 
TABS,ioos:station:wmo:42044:1,2000-06-03T02:30:00Z,26.1914,-97.0507,2.0,350.4638062,21.60862096,-99999.0,'11111222,11111222,99999999' 
TABS,ioos:station:wmo:42044:1,2000-06-03T03:00:00Z,26.1914,-97.0507,2.0,346.2526235,20.70310363,-99999.0,'11111222,11111222,99999999' 
TABS,ioos:station:wmo:42044:1,2000-06-03T03:30:00Z,26.1914,-97.0507,2.0,340.8402884,22.24207949,-99999.0,'11111222,11111222,99999999' 
TABS,ioos:station:wmo:42044:1,2000-06-03T04:00:00Z,26.1914,-97.0507,2.0,339.7859494,24.1366547,-99999.0,'11111222,11111222,99999999' 
TABS,ioos:station:wmo:42044:1,2000-06-03T04:30:00Z,26.1914,-97.0507,2.0,333.2694678,23.18812196,-99999.0,'11111222,11111222,99999999' 
TABS,ioos:station:wmo:42044:1,2000-06-03T05:00:00Z,26.1914,-97.0507,2.0,330.2991581,24.36042898,-99999.0,'11111222,11111222,99999999' 
TABS,ioos:station:wmo:42044:1,2000-06-03T05:30:00Z,26.1914,-97.0507,2.0,330.1013785,26.30042015,-99999.0,'11111222,11111222,99999999' 
TABS,ioos:station:wmo:42044:1,2000-06-03T06:00:00Z,26.1914,-97.0507,2.0,330.5466066,26.35648118,-99999.0,'11111222,11111222,99999999' 
TABS,ioos:station:wmo:42044:1,2000-06-03T06:30:00Z,26.1914,-97.0507,2.0,328.4743814,26.21996568,-99999.0,'11111222,11111222,99999999' 
TABS,ioos:station:wmo:42044:1,2000-06-03T07:00:00Z,26.1914,-97.0507,2.0,335.14787,26.93429041,-99999.0,'11111222,11111222,99999999' 
TABS,ioos:station:wmo:42044:1,2000-06-03T07:30:00Z,26.1914,-97.0507,2.0,336.7618302,26.43461746,-99999.0,'11111222,11111222,99999999' 
TABS,ioos:station:wmo:42044:1,2000-06-03T08:00:00Z,26.1914,-97.0507,2.0,330.5586014,27.89208131,-99999.0,'11111222,11111222,99999999' 
TABS,ioos:station:wmo:42044:1,2000-06-03T08:30:00Z,26.1914,-97.0507,2.0,336.172671,30.61987916,-99999.0,'11111222,11111222,99999999' 
TABS,ioos:station:wmo:42044:1,2000-06-03T09:00:00Z,26.1914,-97.0507,2.0,351.7569693,32.22291886,-99999.0,'11111222,11111222,99999999' 
TABS,ioos:station:wmo:42044:1,2000-06-03T09:30:00Z,26.1914,-97.0507,2.0,348.7939519,31.43942907,-99999.0,'11111222,11111222,99999999' 
TABS,ioos:station:wmo:42044:1,2000-06-03T10:00:00Z,26.1914,-97.0507,2.0,354.2604846,31.29690879,-99999.0,'11111222,11111222,99999999' 
TABS,ioos:station:wmo:42044:1,2000-06-03T10:30:00Z,26.1914,-97.0507,2.0,359.4612269,31.89141107,-99999.0,'11111222,11144222,99999999' 
TABS,ioos:station:wmo:42044:1,2000-06-03T11:00:00Z,26.1914,-97.0507,2.0,357.0102458,34.31671604,-99999.0,'11111222,11111222,99999999' 
TABS,ioos:station:wmo:42044:1,2000-06-03T11:30:00Z,26.1914,-97.0507,2.0,358.8575378,37.10737932,-99999.0,'11111222,11111222,99999999' 
TABS,ioos:station:wmo:42044:1,2000-06-03T12:00:00Z,26.1914,-97.0507,2.0,4.064091834,35.6997619,-99999.0,'11111222,11111222,99999999' 
TABS,ioos:station:wmo:42044:1,2000-06-03T12:30:00Z,26.1914,-97.0507,2.0,7.566616248,36.22541925,-99999.0,'11111222,11111222,99999999' 
TABS,ioos:station:wmo:42044:1,2000-06-03T13:00:00Z,26.1914,-97.0507,2.0,12.99209628,31.80412866,-99999.0,'11111222,11111222,99999999' 
TABS,ioos:station:wmo:42044:1,2000-06-03T13:30:00Z,26.1914,-97.0507,2.0,20.87217751,27.59052917,-99999.0,'11111222,11111222,99999999' 
TABS,ioos:station:wmo:42044:1,2000-06-03T14:00:00Z,26.1914,-97.0507,2.0,7.957296858,29.03959366,-99999.0,'11111222,11111222,99999999' 
TABS,ioos:station:wmo:42044:1,2000-06-03T14:30:00Z,26.1914,-97.0507,2.0,16.70725496,28.00205171,-99999.0,'11111222,11111222,99999999' 
TABS,ioos:station:wmo:42044:1,2000-06-03T15:00:00Z,26.1914,-97.0507,2.0,21.6384079,28.69190304,-99999.0,'11111222,11111222,99999999' 
TABS,ioos:station:wmo:42044:1,2000-06-03T15:30:00Z,26.1914,-97.0507,2.0,23.46078625,24.69111986,-99999.0,'11111222,11111222,99999999' 
TABS,ioos:station:wmo:42044:1,2000-06-03T16:00:00Z,26.1914,-97.0507,2.0,20.43116529,23.06067215,-99999.0,'11111222,11111222,99999999' 
TABS,ioos:station:wmo:42044:1,2000-06-03T16:30:00Z,26.1914,-97.0507,2.0,6.651388795,20.54829677,-99999.0,'11111222,11111222,99999999' 
TABS,ioos:station:wmo:42044:1,2000-06-03T17:00:00Z,26.1914,-97.0507,2.0,54.89324596,18.39670894,-99999.0,'11111222,11111222,99999999' 
TABS,ioos:station:wmo:42044:1,2000-06-03T17:30:00Z,26.1914,-97.0507,2.0,55.36889433,17.5614037,-99999.0,'11111222,11111222,99999999' 
TABS,ioos:station:wmo:42044:1,2000-06-03T18:00:00Z,26.1914,-97.0507,2.0,57.8062303,19.01328483,-99999.0,'11111222,11111222,99999999' 
TABS,ioos:station:wmo:42044:1,2000-06-03T18:30:00Z,26.1914,-97.0507,2.0,54.87216945,16.57966224,-99999.0,'11111222,11111222,99999999' 
TABS,ioos:station:wmo:42044:1,2000-06-03T19:00:00Z,26.1914,-97.0507,2.0,63.65940527,17.12841207,-99999.0,'11111222,11111222,99999999' 
TABS,ioos:station:wmo:42044:1,2000-06-03T19:30:00Z,26.1914,-97.0507,2.0,78.76956084,18.38198303,-99999.0,'11111222,11111222,99999999' 
TABS,ioos:station:wmo:42044:1,2000-06-03T20:00:00Z,26.1914,-97.0507,2.0,53.59732133,10.54835058,-99999.0,'11111222,11111222,99999999' 
TABS,ioos:station:wmo:42044:1,2000-06-03T20:30:00Z,26.1914,-97.0507,2.0,20.55620761,12.73056558,-99999.0,'11111222,11111222,99999999' 
TABS,ioos:station:wmo:42044:1,2000-06-03T21:00:00Z,26.1914,-97.0507,2.0,54.32062681,11.7445349,-99999.0,'11111222,11111222,99999999' 
TABS,ioos:station:wmo:42044:1,2000-06-03T21:30:00Z,26.1914,-97.0507,2.0,34.91054084,13.80407186,-99999.0,'11111222,11111222,99999999' 
TABS,ioos:station:wmo:42044:1,2000-06-03T22:00:00Z,26.1914,-97.0507,2.0,30.09265932,13.08342463,-99999.0,'11111222,11111222,99999999' 
TABS,ioos:station:wmo:42044:1,2000-06-03T22:30:00Z,26.1914,-97.0507,2.0,22.43282135,14.83238686,-99999.0,'11111222,11111222,99999999' 
TABS,ioos:station:wmo:42044:1,2000-06-03T23:00:00Z,26.1914,-97.0507,2.0,26.06743681,14.92855318,-99999.0,'11111222,11111222,99999999' 
TABS,ioos:station:wmo:42044:1,2000-06-03T23:30:00Z,26.1914,-97.0507,2.0,11.29162806,12.15527869,-99999.0,'11111222,11111222,99999999' 
TABS,ioos:station:wmo:42044:1,2000-06-04T00:00:00Z,26.1914,-97.0507,2.0,358.1605117,14.01722512,-99999.0,'11111222,11111222,99999999' 
TABS,ioos:station:wmo:42044:1,2000-06-04T00:30:00Z,26.1914,-97.0507,2.0,13.77144239,16.25733681,-99999.0,'11111222,11111222,99999999' 
TABS,ioos:station:wmo:42044:1,2000-06-04T01:00:00Z,26.1914,-97.0507,2.0,16.91799809,12.30241033,-99999.0,'11111222,11111222,99999999' 
TABS,ioos:station:wmo:42044:1,2000-06-04T01:30:00Z,26.1914,-97.0507,2.0,9.359858583,11.92880966,-99999.0,'11111222,11111222,99999999' 
TABS,ioos:station:wmo:42044:1,2000-06-04T02:00:00Z,26.1914,-97.0507,2.0,8.230189246,14.60036301,-99999.0,'11111222,11111222,99999999' 
TABS,ioos:station:wmo:42044:1,2000-06-04T02:30:00Z,26.1914,-97.0507,2.0,5.766674785,16.32259783,-99999.0,'11111222,11111222,99999999' 
TABS,ioos:station:wmo:42044:1,2000-06-04T03:00:00Z,26.1914,-97.0507,2.0,3.804550412,15.67453987,-99999.0,'11111222,11111222,99999999' 
TABS,ioos:station:wmo:42044:1,2000-06-04T03:30:00Z,26.1914,-97.0507,2.0,2.0062431,17.14050466,-99999.0,'11111222,11111222,99999999' 
TABS,ioos:station:wmo:42044:1,2000-06-04T05:00:00Z,26.1914,-97.0507,2.0,358.2530457,19.67914886,-99999.0,'11111222,11111222,99999999' 
TABS,ioos:station:wmo:42044:1,2000-06-04T05:30:00Z,26.1914,-97.0507,2.0,351.4496755,20.04277426,-99999.0,'11111222,11111222,99999999' 
TABS,ioos:station:wmo:42044:1,2000-06-04T06:00:00Z,26.1914,-97.0507,2.0,352.0395847,21.51735346,-99999.0,'11111222,11111222,99999999' 
TABS,ioos:station:wmo:42044:1,2000-06-04T06:30:00Z,26.1914,-97.0507,2.0,352.0678621,23.76741467,-99999.0,'11111222,11111222,99999999' 
TABS,ioos:station:wmo:42044:1,2000-06-04T07:00:00Z,26.1914,-97.0507,2.0,353.3295328,25.6536703,-99999.0,'11111222,11111222,99999999' 
TABS,ioos:station:wmo:42044:1,2000-06-04T07:30:00Z,26.1914,-97.0507,2.0,353.4343367,29.99674816,-99999.0,'11111222,11111222,99999999' 
TABS,ioos:station:wmo:42044:1,2000-06-04T08:00:00Z,26.1914,-97.0507,2.0,352.4673205,30.66464414,-99999.0,'11111222,11111222,99999999' 
TABS,ioos:station:wmo:42044:1,2000-06-04T08:30:00Z,26.1914,-97.0507,2.0,356.9028924,33.12839417,-99999.0,'11111222,11111222,99999999' 
TABS,ioos:station:wmo:42044:1,2000-06-04T09:00:00Z,26.1914,-97.0507,2.0,357.2154704,36.84350825,-99999.0,'11111222,11111222,99999999' 
TABS,ioos:station:wmo:42044:1,2000-06-04T09:30:00Z,26.1914,-97.0507,2.0,0.000210459,37.7,-99999.0,'11111222,11111222,99999999' 
TABS,ioos:station:wmo:42044:1,2000-06-04T10:00:00Z,26.1914,-97.0507,2.0,1.074015258,39.48693455,-99999.0,'11111222,11111222,99999999' 
TABS,ioos:station:wmo:42044:1,2000-06-04T10:30:00Z,26.1914,-97.0507,2.0,4.992865062,41.13607662,-99999.0,'11111222,11111222,99999999' 
TABS,ioos:station:wmo:42044:1,2000-06-04T11:00:00Z,26.1914,-97.0507,2.0,4.904744697,41.87331847,-99999.0,'11111222,11111222,99999999' 
TABS,ioos:station:wmo:42044:1,2000-06-04T11:30:00Z,26.1914,-97.0507,2.0,4.463547383,42.14782082,-99999.0,'11111222,11111222,99999999' 
TABS,ioos:station:wmo:42044:1,2000-06-04T12:00:00Z,26.1914,-97.0507,2.0,6.995631071,42.77844901,-99999.0,'11111222,11111222,99999999' 
TABS,ioos:station:wmo:42044:1,2000-06-04T12:30:00Z,26.1914,-97.0507,2.0,10.47170347,41.81643696,-99999.0,'11111222,11111222,99999999' 
TABS,ioos:station:wmo:42044:1,2000-06-04T13:00:00Z,26.1914,-97.0507,2.0,11.23159118,44.35955027,-99999.0,'11111222,11111222,99999999' 
TABS,ioos:station:wmo:42044:1,2000-06-04T13:30:00Z,26.1914,-97.0507,2.0,6.51453774,44.68853209,-99999.0,'11111222,11111222,99999999' 
TABS,ioos:station:wmo:42044:1,2000-06-04T14:00:00Z,26.1914,-97.0507,2.0,14.16735103,45.63804772,-99999.0,'11111222,11111222,99999999' 
TABS,ioos:station:wmo:42044:1,2000-06-04T14:30:00Z,26.1914,-97.0507,2.0,27.64674318,38.85636756,-99999.0,'11111222,11111222,99999999' 
TABS,ioos:station:wmo:42044:1,2000-06-04T15:00:00Z,26.1914,-97.0507,2.0,32.90963982,33.18524522,-99999.0,'11111222,11111222,99999999' 
TABS,ioos:station:wmo:42044:1,2000-06-04T15:30:00Z,26.1914,-97.0507,2.0,22.37650032,41.08344801,-99999.0,'11111222,11111222,99999999' 
TABS,ioos:station:wmo:42044:1,2000-06-04T16:00:00Z,26.1914,-97.0507,2.0,21.33907515,44.62961461,-99999.0,'11111222,11111222,99999999' 
TABS,ioos:station:wmo:42044:1,2000-06-04T16:30:00Z,26.1914,-97.0507,2.0,13.21874879,50.8163881,-99999.0,'11111222,11111222,99999999' 
TABS,ioos:station:wmo:42044:1,2000-06-04T17:00:00Z,26.1914,-97.0507,2.0,29.6831499,37.90379664,-99999.0,'11111222,11111222,99999999' 